Location: B�di�
(14.6834°N, 3.1047°W)
Time: 14:46:33
(UTC+00:00)

Ariane H10-3 - Pass Details

Date: 24 January 2020
Orbit: 799 x 73866 km, 7.2° (Epoch: 25 February)

Event Time Altitude Azimuth Distance (km) Brightness Sun altitude
Rises 05:31:03 0° 98° (E) 77,811 14.4 -17.1°
Reaches altitude 10° 06:20:36 10° 101° (E) 77,901 14.4 -5.7°
Maximum altitude 12:06:35 66° 180° (S) 68,742 14.7 55.8°
Drops below altitude 10° 18:54:01 10° 257° (WSW) 29,878 12.1 -11.6°
Enters shadow 20:32:54 42° 153° (SSE) 2,111 4.5 -34.7°
